Midland, TX

10:41 AM CST on February 27, 2017 (GMT -0600)
Midland

Weather History for KMDD - November, 2012

Change the Weather History Date:

Wednesday, November 28, 2012

  Actual Average (KMAF) Record (KMAF)
Temperature  
Mean Temperature 55 °F -  
Max Temperature 74 °F 59 °F 85 °F (1949)
Min Temperature 36 °F 35 °F 16 °F (2001)
Degree Days  
Heating Degree Days 10    
Growing Degree Days 5 (Base 50)    
Moisture  
Dew Point 32 °F    
Average Humidity 45    
Maximum Humidity 63    
Minimum Humidity 20    
Precipitation  
Precipitation 0.00 in - - ()
Sea Level Pressure  
Sea Level Pressure 30.26 in    
Wind  
Wind Speed 5 mph (South)    
Max Wind Speed 14 mph    
Max Gust Speed 18 mph    
Visibility 10 miles    
Events      
Averages and records for this station are not official NWS values.
T = Trace of Precipitation, MM = Missing Value Source: NWS Daily Summary

Daily Weather History Graph

Daily Weather History Graph

Search for Another Location

Airport or City:

Trip Planner

Search our weather history database for the weather conditions in past years. The results will help you decide how hot, cold, wet, or windy it might be!

Date:

Astronomy

Nov. 28, 2012 Rise Set
Actual Time 7:29 AM CST 5:43 PM CST
Civil Twilight 7:02 AM CST 6:10 PM CST
Nautical Twilight 6:32 AM CST 6:40 PM CST
Astronomical Twilight 6:02 AM CST 7:10 PM CST
Moon 6:00 PM CST (11/28) 7:28 AM CST (11/28)
Length of Visible Light 11h 07m
Length of Day
10h 14m
Full, 100% of the Moon is Illuminated
Nov 28
Full
Dec 6
Last Quarter
Dec 13
New
Dec 19
First Quarter
Dec 28
Full

Hourly Weather History & Observations

Time (CST) Temp. Windchill Dew Point Humidity Pressure Visibility Wind Dir Wind Speed Gust Speed Precip Events Conditions
12:35 AM 47.5 °F - 25.5 °F 42% 30.29 in 10.0 mi South 5.8 mph - N/A   Clear
12:55 AM 47.7 °F - 26.1 °F 43% 30.29 in 10.0 mi South 8.1 mph - N/A   Clear
1:15 AM 47.7 °F - 26.6 °F 44% 30.29 in 10.0 mi SSW 8.1 mph - N/A   Clear
1:35 AM 46.9 °F - 26.6 °F 45% 30.29 in 10.0 mi South 4.6 mph - N/A   Clear
1:55 AM 46.4 °F 44.3 °F 27.1 °F 47% 30.29 in 10.0 mi SSW 4.6 mph - N/A   Clear
2:15 AM 45.9 °F 43.6 °F 27.3 °F 48% 30.29 in 10.0 mi South 4.6 mph - N/A   Clear
2:35 AM 44.1 °F 42.5 °F 27.5 °F 52% 30.29 in 10.0 mi South 3.5 mph - N/A   Clear
2:55 AM 44.4 °F 42.9 °F 27.5 °F 52% 30.29 in 10.0 mi SSW 3.5 mph - N/A   Clear
3:15 AM 44.1 °F - 27.5 °F 52% 30.29 in 10.0 mi Calm Calm - N/A   Clear
3:35 AM 43.9 °F - 27.7 °F 53% 30.30 in 10.0 mi Calm Calm - N/A   Clear
3:55 AM 43.3 °F - 28.0 °F 55% 30.30 in 10.0 mi Calm Calm - N/A   Clear
4:15 AM 42.1 °F 40.2 °F 28.4 °F 58% 30.30 in 10.0 mi NW 3.5 mph - N/A   Clear
4:35 AM 39.6 °F - 27.7 °F 62% 30.30 in 10.0 mi Calm Calm - N/A   Clear
4:55 AM 37.9 °F 35.5 °F 26.2 °F 63% 30.30 in 10.0 mi NNW 3.5 mph - N/A   Clear
5:15 AM 37.4 °F - 25.7 °F 63% 30.30 in 10.0 mi Calm Calm - N/A   Clear
5:35 AM 37.2 °F 34.7 °F 25.2 °F 62% 30.30 in 10.0 mi NNW 3.5 mph - N/A   Clear
5:55 AM 37.0 °F - 25.5 °F 63% 30.31 in 10.0 mi Calm Calm - N/A   Clear
6:15 AM 37.2 °F - 25.5 °F 63% 30.31 in 10.0 mi Calm Calm - N/A   Clear
6:35 AM 36.9 °F - 25.2 °F 63% 30.31 in 10.0 mi Calm Calm - N/A   Clear
6:55 AM 36.1 °F - 24.6 °F 63% 30.31 in 10.0 mi Calm Calm - N/A   Clear
7:15 AM 36.0 °F - 24.3 °F 63% 30.32 in 10.0 mi Calm Calm - N/A   Clear
7:35 AM 36.5 °F - 24.4 °F 62% 30.33 in 10.0 mi Calm Calm - N/A   Clear
7:55 AM 37.2 °F - 24.6 °F 60% 30.33 in 10.0 mi Calm Calm - N/A   Clear
8:15 AM 38.1 °F - 25.3 °F 60% 30.33 in 10.0 mi Calm Calm - N/A   Clear
8:35 AM 40.3 °F - 26.2 °F 57% 30.33 in 10.0 mi Calm Calm - N/A   Clear
8:55 AM 41.9 °F - 26.6 °F 55% 30.33 in 10.0 mi Calm Calm - N/A   Clear
9:15 AM 43.9 °F - 27.0 °F 51% 30.33 in 10.0 mi Calm Calm - N/A   Clear
9:35 AM 46.6 °F - 28.2 °F 49% 30.34 in 10.0 mi Calm Calm - N/A   Clear
9:55 AM 50.9 °F - 30.6 °F 46% 30.34 in 10.0 mi South 4.6 mph - N/A   Clear
10:15 AM 55.2 °F - 32.5 °F 42% 30.33 in 10.0 mi South 6.9 mph - N/A   Clear
10:35 AM 57.2 °F - 33.6 °F 41% 30.34 in 10.0 mi SSW 8.1 mph - N/A   Clear
10:55 AM 59.5 °F - 34.2 °F 39% 30.33 in 10.0 mi SSW 9.2 mph - N/A   Clear
11:15 AM 61.0 °F - 34.3 °F 37% 30.33 in 10.0 mi SSE 9.2 mph - N/A   Scattered Clouds
11:35 AM 63.1 °F - 34.7 °F 35% 30.32 in 10.0 mi SSW 5.8 mph - N/A   Scattered Clouds
11:55 AM 64.9 °F - 35.2 °F 33% 30.31 in 10.0 mi South 9.2 mph - N/A   Clear
12:15 PM 66.2 °F - 35.6 °F 32% 30.29 in 10.0 mi SSW 5.8 mph - N/A   Clear
12:35 PM 67.8 °F - 36.0 °F 31% 30.28 in 10.0 mi SSW 6.9 mph - N/A   Clear
12:55 PM 69.3 °F - 36.1 °F 30% 30.27 in 10.0 mi SSW 8.1 mph - N/A   Clear
1:15 PM 70.5 °F - 36.0 °F 28% 30.26 in 10.0 mi SSW 9.2 mph - N/A   Clear
1:35 PM 72.0 °F - 36.1 °F 27% 30.25 in 10.0 mi South 10.4 mph - N/A   Clear
1:55 PM 73.0 °F - 36.5 °F 26% 30.24 in 10.0 mi SSW 11.5 mph 16.1 mph N/A   Clear
2:15 PM 73.6 °F - 36.3 °F 26% 30.23 in 10.0 mi SSW 12.7 mph - N/A   Clear
2:35 PM 73.8 °F - 35.2 °F 25% 30.22 in 10.0 mi SSW 13.8 mph - N/A   Clear
2:55 PM 73.9 °F - 34.0 °F 23% 30.21 in 10.0 mi South 11.5 mph - N/A   Clear
3:15 PM 74.5 °F - 32.7 °F 22% 30.20 in 10.0 mi SSE 11.5 mph - N/A   Clear
3:35 PM 74.7 °F - 32.0 °F 21% 30.20 in 10.0 mi SSW 9.2 mph - N/A   Clear
3:55 PM 74.7 °F - 31.8 °F 21% 30.20 in 10.0 mi South 8.1 mph - N/A   Clear
4:15 PM 74.5 °F - 30.9 °F 20% 30.20 in 10.0 mi SW 10.4 mph - N/A   Clear
4:35 PM 73.9 °F - 31.1 °F 21% 30.20 in 10.0 mi South 6.9 mph - N/A   Clear
4:55 PM 72.9 °F - 32.2 °F 22% 30.20 in 10.0 mi South 11.5 mph - N/A   Clear
5:15 PM 71.8 °F - 31.6 °F 23% 30.20 in 10.0 mi SSE 10.4 mph - N/A   Clear
5:35 PM 70.3 °F - 32.5 °F 25% 30.19 in 10.0 mi SSE 9.2 mph - N/A   Clear
5:55 PM 68.0 °F - 34.7 °F 29% 30.19 in 10.0 mi SSE 8.1 mph - N/A   Clear
6:15 PM 66.9 °F - 36.3 °F 32% 30.19 in 10.0 mi SSE 10.4 mph - N/A   Clear
6:35 PM 66.0 °F - 38.1 °F 36% 30.20 in 10.0 mi South 10.4 mph - N/A   Clear
6:55 PM 64.9 °F - 38.3 °F 37% 30.21 in 10.0 mi South 11.5 mph - N/A   Clear
7:15 PM 63.7 °F - 38.3 °F 39% 30.21 in 10.0 mi SSE 10.4 mph - N/A   Clear
7:35 PM 61.9 °F - 38.5 °F 42% 30.21 in 10.0 mi South 9.2 mph - N/A   Clear
7:55 PM 61.0 °F - 39.2 °F 45% 30.21 in 10.0 mi South 8.1 mph - N/A   Clear
8:15 PM 60.3 °F - 39.4 °F 46% 30.21 in 10.0 mi SSE 8.1 mph - N/A   Clear
8:35 PM 59.4 °F - 39.6 °F 48% 30.21 in 10.0 mi SSE 6.9 mph - N/A   Clear
8:55 PM 57.9 °F - 39.6 °F 50% 30.21 in 10.0 mi SSE 8.1 mph - N/A   Clear
9:15 PM 57.4 °F - 39.9 °F 52% 30.21 in 10.0 mi South 10.4 mph - N/A   Clear
9:35 PM 56.5 °F - 40.1 °F 54% 30.21 in 10.0 mi South 9.2 mph - N/A   Clear
9:55 PM 55.8 °F - 40.3 °F 56% 30.21 in 10.0 mi South 8.1 mph - N/A   Clear
10:15 PM 55.2 °F - 40.3 °F 57% 30.21 in 10.0 mi South 8.1 mph - N/A   Clear
10:35 PM 54.5 °F - 40.3 °F 59% 30.21 in 10.0 mi South 6.9 mph - N/A   Clear
10:55 PM 53.4 °F - 40.1 °F 61% 30.21 in 10.0 mi South 4.6 mph - N/A   Clear
11:15 PM 53.1 °F - 40.1 °F 61% 30.21 in 10.0 mi South 9.2 mph - N/A   Clear
11:35 PM 53.8 °F - 40.3 °F 60% 30.21 in 10.0 mi South 11.5 mph 18.4 mph N/A   Clear
11:55 PM 53.8 °F - 40.1 °F 60% 30.20 in 10.0 mi South 10.4 mph - N/A   Clear